Time,TemperatureF,DewpointF,PressureIn,WindDirection,WindDirectionDegrees,WindSpeedMPH,WindSpeedGustMPH,Humidity,HourlyPrecipIn,Conditions,Clouds,dailyrainin,SoftwareType,DateUTC
2013-10-11 00:03:00,60.6,50.4,-100.00,North,10,0.4,3.8,69,-99.99,,,-99.99,WSDL version 423,2013-10-11 04:03:00,
2013-10-11 00:06:00,60.6,50.4,-100.00,WNW,287,0.0,3.8,69,-99.99,,,-99.99,WSDL version 423,2013-10-11 04:06:00,
2013-10-11 00:09:00,60.6,50.4,-100.00,ESE,108,0.0,1.6,69,-99.99,,,-99.99,WSDL version 423,2013-10-11 04:09:00,
2013-10-11 00:12:00,60.6,50.4,-100.00,NE,48,0.0,1.3,69,-99.99,,,-99.99,WSDL version 423,2013-10-11 04:12:00,
2013-10-11 00:15:00,60.6,50.4,-100.00,NNE,15,0.0,1.1,69,-99.99,,,-99.99,WSDL version 423,2013-10-11 04:15:00,
2013-10-11 00:21:00,60.6,50.4,-100.00,NW,321,0.5,2.7,69,0.00,,,0.00,WSDL version 423,2013-10-11 04:21:00,
2013-10-11 00:27:00,60.4,50.2,-100.00,SSE,149,0.0,2.7,69,-99.99,,,-99.99,WSDL version 423,2013-10-11 04:27:00,
2013-10-11 00:33:00,60.4,50.2,-100.00,NW,311,0.9,2.5,69,0.00,,,0.00,WSDL version 423,2013-10-11 04:33:00,
2013-10-11 00:39:00,60.4,50.3,-100.00,NNE,18,0.0,2.5,70,-99.99,,,-99.99,WSDL version 423,2013-10-11 04:39:00,
2013-10-11 00:45:00,60.4,50.5,-100.00,NE,45,0.5,2.0,70,-99.99,,,-99.99,WSDL version 423,2013-10-11 04:45:00,
2013-10-11 00:51:00,60.3,50.4,-100.00,ENE,72,0.0,2.0,70,-99.99,,,-99.99,WSDL version 423,2013-10-11 04:51:00,
2013-10-11 00:57:00,60.1,50.3,-100.00,SE,132,0.0,6.5,70,-99.99,,,-99.99,WSDL version 423,2013-10-11 04:57:00,
2013-10-11 01:03:00,60.0,50.3,-100.00,SE,144,0.0,6.5,70,-99.99,,,-99.99,WSDL version 423,2013-10-11 05:03:00,
2013-10-11 01:09:00,59.8,50.3,-100.00,SSW,212,0.0,1.6,71,-99.99,,,-99.99,WSDL version 423,2013-10-11 05:09:00,
2013-10-11 01:15:00,59.6,50.2,-100.00,North,8,0.0,1.3,71,-99.99,,,-99.99,WSDL version 423,2013-10-11 05:15:00,
2013-10-11 01:21:00,59.4,50.1,-100.00,ESE,117,0.0,1.1,72,0.00,,,0.00,WSDL version 423,2013-10-11 05:21:00,
2013-10-11 01:27:00,59.3,50.3,-100.00,ESE,105,0.1,2.7,72,-99.99,,,-99.99,WSDL version 423,2013-10-11 05:27:00,
2013-10-11 01:33:00,59.1,50.0,-100.00,ESE,104,0.0,2.5,72,-99.99,,,-99.99,WSDL version 423,2013-10-11 05:33:00,
2013-10-11 01:39:00,58.8,50.2,-100.00,SE,128,0.0,0.9,73,-99.99,,,-99.99,WSDL version 423,2013-10-11 05:39:00,
2013-10-11 01:45:00,58.7,50.4,-100.00,SE,135,0.0,2.2,74,0.00,,,0.00,WSDL version 423,2013-10-11 05:45:00,
2013-10-11 01:51:00,58.5,50.3,-100.00,NNW,346,0.1,3.1,74,-99.99,,,-99.99,WSDL version 423,2013-10-11 05:51:00,
2013-10-11 01:57:00,58.4,50.1,-100.00,NE,56,0.0,3.1,74,-99.99,,,-99.99,WSDL version 423,2013-10-11 05:57:00,
2013-10-11 02:03:00,58.3,50.0,-100.00,ESE,103,0.0,1.6,74,-99.99,,,-99.99,WSDL version 423,2013-10-11 06:03:00,
2013-10-11 02:09:00,58.3,50.0,-100.00,ENE,58,0.0,1.3,74,-99.99,,,-99.99,WSDL version 423,2013-10-11 06:09:00,
2013-10-11 02:15:00,58.1,50.2,-100.00,NE,50,0.0,1.1,75,-99.99,,,-99.99,WSDL version 423,2013-10-11 06:15:00,
2013-10-11 02:21:00,58.3,50.4,-100.00,WNW,293,0.0,1.3,75,-99.99,,,-99.99,WSDL version 423,2013-10-11 06:21:00,
2013-10-11 02:27:00,58.1,50.2,-100.00,West,270,0.0,0.0,75,-99.99,,,-99.99,WSDL version 423,2013-10-11 06:27:00,
2013-10-11 02:33:00,58.2,50.3,-100.00,SW,225,0.0,2.0,75,-99.99,,,-99.99,WSDL version 423,2013-10-11 06:33:00,
2013-10-11 02:39:00,58.3,50.4,-100.00,NNE,27,0.7,2.7,75,-99.99,,,-99.99,WSDL version 423,2013-10-11 06:39:00,
2013-10-11 02:45:00,58.5,50.6,-100.00,ENE,73,0.1,3.1,75,0.00,,,0.00,WSDL version 423,2013-10-11 06:45:00,
2013-10-11 02:51:00,58.5,50.6,-100.00,NNE,23,0.0,3.1,75,-99.99,,,-99.99,WSDL version 423,2013-10-11 06:51:00,
2013-10-11 02:57:00,58.5,50.2,-100.00,SSE,158,0.6,2.2,74,-99.99,,,-99.99,WSDL version 423,2013-10-11 06:57:00,
2013-10-11 03:03:00,58.5,50.3,-100.00,NNW,347,0.0,1.6,75,-99.99,,,-99.99,WSDL version 423,2013-10-11 07:03:00,
2013-10-11 03:09:00,58.6,50.7,-100.00,North,11,0.6,2.2,75,-99.99,,,-99.99,WSDL version 423,2013-10-11 07:09:00,
2013-10-11 03:15:00,58.6,50.7,-100.00,North,356,0.1,1.6,75,-99.99,,,-99.99,WSDL version 423,2013-10-11 07:15:00,
2013-10-11 03:21:00,58.8,50.8,-100.00,NW,321,0.5,3.6,75,-99.99,,,-99.99,WSDL version 423,2013-10-11 07:21:00,
2013-10-11 03:27:00,58.7,50.5,-100.00,West,267,0.0,3.6,74,-99.99,,,-99.99,WSDL version 423,2013-10-11 07:27:00,
2013-10-11 03:33:00,58.8,50.9,-100.00,North,360,0.0,2.2,75,0.00,,,0.00,WSDL version 423,2013-10-11 07:33:00,
2013-10-11 03:39:00,58.8,50.7,-100.00,WNW,300,0.0,4.3,74,0.00,,,0.00,WSDL version 423,2013-10-11 07:39:00,
2013-10-11 03:45:00,58.8,50.6,-100.00,SSW,212,0.0,4.3,75,0.00,,,0.00,WSDL version 423,2013-10-11 07:45:00,
2013-10-11 03:51:00,58.8,50.7,-100.00,North,4,0.4,2.0,75,-99.99,,,-99.99,WSDL version 423,2013-10-11 07:51:00,
2013-10-11 03:57:00,59.0,50.7,-100.00,NE,38,0.3,2.2,74,-99.99,,,-99.99,WSDL version 423,2013-10-11 07:57:00,
2013-10-11 04:03:00,59.0,50.7,-100.00,ESE,116,0.4,2.7,74,-99.99,,,-99.99,WSDL version 423,2013-10-11 08:03:00,
2013-10-11 04:09:00,59.0,50.7,-100.00,NNW,338,0.0,2.7,74,0.00,,,0.00,WSDL version 423,2013-10-11 08:09:00,
2013-10-11 04:15:00,59.1,50.8,-100.00,NW,304,0.0,1.1,74,-99.99,,,-99.99,WSDL version 423,2013-10-11 08:15:00,
2013-10-11 04:21:00,59.2,50.9,-100.00,ENE,71,0.0,1.3,74,0.00,,,0.00,WSDL version 423,2013-10-11 08:21:00,
2013-10-11 04:27:00,59.2,50.9,-100.00,NNE,19,0.0,2.2,74,-99.99,,,-99.99,WSDL version 423,2013-10-11 08:27:00,
2013-10-11 04:33:00,59.2,50.9,-100.00,WNW,300,0.0,2.0,74,-99.99,,,-99.99,WSDL version 423,2013-10-11 08:33:00,
2013-10-11 04:39:00,59.2,50.9,-100.00,ESE,116,0.0,2.9,74,0.00,,,0.00,WSDL version 423,2013-10-11 08:39:00,
2013-10-11 04:45:00,59.2,50.9,-100.00,NW,309,0.0,3.6,74,0.00,,,0.00,WSDL version 423,2013-10-11 08:45:00,
2013-10-11 04:51:00,59.2,50.9,-100.00,East,79,0.7,3.6,74,0.00,,,0.00,WSDL version 423,2013-10-11 08:51:00,
2013-10-11 04:57:00,59.2,50.9,-100.00,NE,42,0.0,2.7,74,0.00,,,0.00,WSDL version 423,2013-10-11 08:57:00,
2013-10-11 05:03:00,59.2,50.9,-100.00,WSW,256,0.0,2.7,74,0.00,,,0.00,WSDL version 423,2013-10-11 09:03:00,
2013-10-11 05:09:00,59.2,50.9,-100.00,NE,45,0.0,2.5,74,0.00,,,0.00,WSDL version 423,2013-10-11 09:09:00,
2013-10-11 05:15:00,59.2,50.9,-100.00,North,350,0.0,6.0,74,-99.99,,,-99.99,WSDL version 423,2013-10-11 09:15:00,
2013-10-11 05:21:00,59.2,50.9,-100.00,WNW,302,0.4,2.5,74,-99.99,,,-99.99,WSDL version 423,2013-10-11 09:21:00,
2013-10-11 05:27:00,59.2,50.9,-100.00,SW,228,0.6,1.1,74,-99.99,,,-99.99,WSDL version 423,2013-10-11 09:27:00,
2013-10-11 05:33:00,59.2,50.9,-100.00,NNE,17,0.7,2.5,74,0.00,,,0.00,WSDL version 423,2013-10-11 09:33:00,
2013-10-11 05:39:00,59.2,50.9,-100.00,ENE,58,0.8,3.1,74,-99.99,,,-99.99,WSDL version 423,2013-10-11 09:39:00,
2013-10-11 05:45:00,59.2,51.0,-100.00,NW,304,0.6,3.1,74,0.00,,,0.00,WSDL version 423,2013-10-11 09:45:00,
2013-10-11 05:51:00,59.4,51.1,-100.00,East,81,0.7,2.9,74,-99.99,,,-99.99,WSDL version 423,2013-10-11 09:51:00,
2013-10-11 05:57:00,59.4,51.1,-100.00,South,180,0.0,2.0,74,-99.99,,,-99.99,WSDL version 423,2013-10-11 09:57:00,
2013-10-11 06:03:00,59.4,51.1,-100.00,WSW,255,0.0,1.1,74,-99.99,,,-99.99,WSDL version 423,2013-10-11 10:03:00,
2013-10-11 06:09:00,59.4,51.1,-100.00,ENE,75,0.0,2.5,74,-99.99,,,-99.99,WSDL version 423,2013-10-11 10:09:00,
2013-10-11 06:15:00,59.4,51.1,-100.00,NNE,26,0.4,1.6,74,-99.99,,,-99.99,WSDL version 423,2013-10-11 10:15:00,
2013-10-11 06:21:00,59.5,51.3,-100.00,NNE,23,0.2,2.2,74,-99.99,,,-99.99,WSDL version 423,2013-10-11 10:21:00,
2013-10-11 06:27:00,59.5,51.3,-100.00,WNW,302,0.0,2.0,74,-99.99,,,-99.99,WSDL version 423,2013-10-11 10:27:00,
2013-10-11 06:33:00,59.5,51.3,-100.00,NW,323,0.3,1.1,74,-99.99,,,-99.99,WSDL version 423,2013-10-11 10:33:00,
2013-10-11 06:39:00,59.5,51.3,-100.00,North,354,0.0,2.2,74,0.00,,,0.00,WSDL version 423,2013-10-11 10:39:00,
2013-10-11 06:45:00,59.5,51.3,-100.00,WNW,293,0.0,2.2,74,-99.99,,,-99.99,WSDL version 423,2013-10-11 10:45:00,
2013-10-11 06:51:00,59.5,51.3,-100.00,ENE,68,0.0,0.9,74,0.00,,,0.00,WSDL version 423,2013-10-11 10:51:00,
2013-10-11 06:57:00,59.5,51.2,-100.00,North,360,0.0,1.1,74,0.00,,,0.00,WSDL version 423,2013-10-11 10:57:00,
2013-10-11 07:03:00,59.5,51.0,-100.00,SSE,158,0.4,1.1,73,0.00,,,0.00,WSDL version 423,2013-10-11 11:03:00,
2013-10-11 07:09:00,59.5,51.2,-100.00,North,11,0.0,1.1,74,-99.99,,,-99.99,WSDL version 423,2013-10-11 11:09:00,
2013-10-11 07:15:00,59.5,51.1,-100.00,SW,234,0.7,2.7,74,-99.99,,,-99.99,WSDL version 423,2013-10-11 11:15:00,
2013-10-11 07:21:00,59.5,51.3,-100.00,ENE,62,0.0,2.7,74,0.00,,,0.00,WSDL version 423,2013-10-11 11:21:00,
2013-10-11 07:27:00,59.7,51.4,-100.00,NE,34,0.6,2.9,74,0.00,,,0.00,WSDL version 423,2013-10-11 11:27:00,
2013-10-11 07:33:00,59.7,51.4,-100.00,NE,45,0.8,2.9,74,-99.99,,,-99.99,WSDL version 423,2013-10-11 11:33:00,
2013-10-11 07:39:00,59.7,51.4,-100.00,NE,41,0.0,2.0,74,-99.99,,,-99.99,WSDL version 423,2013-10-11 11:39:00,
2013-10-11 07:45:00,59.8,51.5,-100.00,ESE,105,0.0,1.3,74,-99.99,,,-99.99,WSDL version 423,2013-10-11 11:45:00,
2013-10-11 07:51:00,59.9,51.6,-100.00,NW,315,0.3,2.5,74,-99.99,,,-99.99,WSDL version 423,2013-10-11 11:51:00,
2013-10-11 07:57:00,60.0,51.7,-100.00,SE,138,0.0,4.0,74,0.00,,,0.00,WSDL version 423,2013-10-11 11:57:00,
2013-10-11 08:03:00,60.1,51.8,-100.00,East,90,0.0,3.1,74,-99.99,,,-99.99,WSDL version 423,2013-10-11 12:03:00,
2013-10-11 08:09:00,60.1,51.8,-100.00,ESE,116,0.5,3.4,74,-99.99,,,-99.99,WSDL version 423,2013-10-11 12:09:00,
2013-10-11 08:15:00,60.2,51.9,-100.00,SSW,209,0.4,2.2,74,-99.99,,,-99.99,WSDL version 423,2013-10-11 12:15:00,
2013-10-11 08:21:00,60.4,52.0,-100.00,NW,324,0.0,2.2,74,-99.99,,,-99.99,WSDL version 423,2013-10-11 12:21:00,
2013-10-11 08:27:00,60.6,52.3,-100.00,NE,54,0.0,1.6,74,0.00,,,0.00,WSDL version 423,2013-10-11 12:27:00,
2013-10-11 08:33:00,60.7,52.2,-100.00,North,354,0.0,1.6,73,-99.99,,,-99.99,WSDL version 423,2013-10-11 12:33:00,
2013-10-11 08:39:00,61.1,52.5,-100.00,NNW,338,0.0,2.2,73,-99.99,,,-99.99,WSDL version 423,2013-10-11 12:39:00,
2013-10-11 08:45:00,61.4,52.8,-100.00,NNE,16,0.6,2.2,73,-99.99,,,-99.99,WSDL version 423,2013-10-11 12:45:00,
2013-10-11 08:51:00,61.7,53.0,-100.00,SW,216,0.4,2.0,73,0.00,,,0.00,WSDL version 423,2013-10-11 12:51:00,
2013-10-11 08:57:00,61.8,53.1,-100.00,West,281,0.6,3.1,73,-99.99,,,-99.99,WSDL version 423,2013-10-11 12:57:00,
2013-10-11 09:03:00,61.9,53.2,-100.00,North,360,0.0,3.1,73,-99.99,,,-99.99,WSDL version 423,2013-10-11 13:03:00,
2013-10-11 09:09:00,62.5,53.8,-100.00,North,10,0.0,0.9,73,-99.99,,,-99.99,WSDL version 423,2013-10-11 13:09:00,
2013-10-11 09:15:00,62.9,53.8,-100.00,NNW,330,1.0,2.2,72,-99.99,,,-99.99,WSDL version 423,2013-10-11 13:15:00,
2013-10-11 09:21:00,63.2,54.1,-100.00,NNW,338,0.0,2.7,72,-99.99,,,-99.99,WSDL version 423,2013-10-11 13:21:00,
2013-10-11 09:27:00,63.3,54.2,-100.00,North,11,0.0,2.5,72,0.00,,,0.00,WSDL version 423,2013-10-11 13:27:00,
2013-10-11 09:33:00,63.5,54.3,-100.00,South,190,0.0,1.3,72,-99.99,,,-99.99,WSDL version 423,2013-10-11 13:33:00,
2013-10-11 09:39:00,63.5,54.0,-100.00,NNE,31,0.4,1.6,71,-99.99,,,-99.99,WSDL version 423,2013-10-11 13:39:00,
2013-10-11 09:45:00,63.4,53.9,-100.00,NNW,338,0.9,3.8,71,-99.99,,,-99.99,WSDL version 423,2013-10-11 13:45:00,
2013-10-11 09:51:00,63.2,53.6,-100.00,NNW,329,0.0,3.8,71,-99.99,,,-99.99,WSDL version 423,2013-10-11 13:51:00,
2013-10-11 09:57:00,63.3,53.7,-100.00,West,280,0.9,2.7,71,-99.99,,,-99.99,WSDL version 423,2013-10-11 13:57:00,
2013-10-11 10:03:00,63.4,53.9,-100.00,ENE,68,0.0,2.7,71,-99.99,,,-99.99,WSDL version 423,2013-10-11 14:03:00,
2013-10-11 10:09:00,63.9,54.3,-100.00,NW,323,0.3,2.7,71,-99.99,,,-99.99,WSDL version 423,2013-10-11 14:09:00,
2013-10-11 10:15:00,64.1,54.1,-100.00,NW,315,1.1,3.6,70,0.00,,,0.00,WSDL version 423,2013-10-11 14:15:00,
2013-10-11 10:21:00,64.2,54.2,-100.00,NW,309,0.3,3.6,70,-99.99,,,-99.99,WSDL version 423,2013-10-11 14:21:00,
2013-10-11 10:27:00,64.3,54.3,-100.00,NW,305,0.0,2.7,70,-99.99,,,-99.99,WSDL version 423,2013-10-11 14:27:00,
2013-10-11 10:33:00,64.3,54.3,-100.00,NW,312,0.6,2.9,70,0.00,,,0.00,WSDL version 423,2013-10-11 14:33:00,
2013-10-11 10:39:00,64.2,54.2,-100.00,NNW,332,0.0,2.7,70,-99.99,,,-99.99,WSDL version 423,2013-10-11 14:39:00,
2013-10-11 10:45:00,64.2,54.2,-100.00,North,8,0.0,0.0,70,-99.99,,,-99.99,WSDL version 423,2013-10-11 14:45:00,
2013-10-11 10:51:00,64.5,54.4,-100.00,NW,309,0.0,3.4,69,0.00,,,0.00,WSDL version 423,2013-10-11 14:51:00,
2013-10-11 10:57:00,64.7,54.3,-100.00,East,98,0.3,3.4,69,-99.99,,,-99.99,WSDL version 423,2013-10-11 14:57:00,
2013-10-11 11:03:00,64.7,54.3,-100.00,NNW,338,0.0,2.2,69,-99.99,,,-99.99,WSDL version 423,2013-10-11 15:03:00,
2013-10-11 11:09:00,64.6,54.2,-100.00,North,6,0.0,1.6,69,-99.99,,,-99.99,WSDL version 423,2013-10-11 15:09:00,
2013-10-11 11:15:00,64.6,54.2,-100.00,NE,45,0.0,2.7,69,0.00,,,0.00,WSDL version 423,2013-10-11 15:15:00,
2013-10-11 11:21:00,64.6,54.2,-100.00,NNW,340,0.0,1.1,69,-99.99,,,-99.99,WSDL version 423,2013-10-11 15:21:00,
2013-10-11 11:27:00,64.6,54.2,-100.00,North,11,0.6,3.1,69,-99.99,,,-99.99,WSDL version 423,2013-10-11 15:27:00,
2013-10-11 11:33:00,64.7,54.3,-100.00,NW,323,0.8,3.1,69,0.00,,,0.00,WSDL version 423,2013-10-11 15:33:00,
2013-10-11 11:39:00,64.6,54.2,-100.00,NW,325,0.0,2.5,69,0.00,,,0.00,WSDL version 423,2013-10-11 15:39:00,
2013-10-11 11:45:00,64.6,54.4,-100.00,North,360,0.0,2.0,70,-99.99,,,-99.99,WSDL version 423,2013-10-11 15:45:00,
2013-10-11 11:51:00,64.6,54.6,-100.00,NNW,343,0.0,2.5,70,-99.99,,,-99.99,WSDL version 423,2013-10-11 15:51:00,
2013-10-11 11:57:00,64.6,54.7,-100.00,NNE,25,0.1,3.1,71,-99.99,,,-99.99,WSDL version 423,2013-10-11 15:57:00,
2013-10-11 12:03:00,64.4,54.8,-100.00,NNW,341,0.0,3.1,71,0.00,,,0.00,WSDL version 423,2013-10-11 16:03:00,
2013-10-11 12:09:00,64.4,54.8,-100.00,WNW,283,0.0,2.9,72,0.00,,,0.00,WSDL version 423,2013-10-11 16:09:00,
2013-10-11 12:15:00,64.0,55.1,-100.00,WNW,295,0.0,2.9,73,-99.99,,,-99.99,WSDL version 423,2013-10-11 16:15:00,
2013-10-11 12:21:00,63.6,54.9,-100.00,WNW,287,0.0,1.3,74,0.00,,,0.00,WSDL version 423,2013-10-11 16:21:00,
2013-10-11 12:27:00,63.3,55.1,-100.00,ENE,71,0.0,2.9,75,-99.99,,,-99.99,WSDL version 423,2013-10-11 16:27:00,
2013-10-11 12:33:00,63.3,55.3,-100.00,East,95,0.0,1.6,75,-99.99,,,-99.99,WSDL version 423,2013-10-11 16:33:00,
2013-10-11 12:39:00,63.4,55.5,-100.00,South,190,0.0,1.1,76,-99.99,,,-99.99,WSDL version 423,2013-10-11 16:39:00,
2013-10-11 12:45:00,63.5,55.9,-100.00,East,87,0.0,1.6,77,-99.99,,,-99.99,WSDL version 423,2013-10-11 16:45:00,
2013-10-11 12:51:00,63.4,56.0,-100.00,West,280,0.0,1.1,77,-99.99,,,-99.99,WSDL version 423,2013-10-11 16:51:00,
2013-10-11 12:57:00,63.4,56.1,-100.00,SE,143,0.0,2.5,77,-99.99,,,-99.99,WSDL version 423,2013-10-11 16:57:00,
2013-10-11 13:03:00,63.3,56.1,-100.00,SSW,210,0.0,2.5,77,-99.99,,,-99.99,WSDL version 423,2013-10-11 17:03:00,
2013-10-11 13:09:00,63.4,56.3,-100.00,NW,318,0.0,2.9,78,-99.99,,,-99.99,WSDL version 423,2013-10-11 17:09:00,
2013-10-11 13:15:00,63.5,56.5,-100.00,NW,315,0.0,1.3,78,0.00,,,0.00,WSDL version 423,2013-10-11 17:15:00,
2013-10-11 13:21:00,63.5,56.5,-100.00,ESE,109,0.0,1.3,77,0.00,,,0.00,WSDL version 423,2013-10-11 17:21:00,
2013-10-11 13:27:00,63.7,56.7,-100.00,North,349,0.0,1.3,78,-99.99,,,-99.99,WSDL version 423,2013-10-11 17:27:00,
2013-10-11 13:33:00,64.0,57.0,-100.00,NNE,33,0.0,1.3,78,-99.99,,,-99.99,WSDL version 423,2013-10-11 17:33:00,
2013-10-11 13:39:00,64.1,57.1,-100.00,North,353,0.0,1.6,78,-99.99,,,-99.99,WSDL version 423,2013-10-11 17:39:00,
2013-10-11 13:45:00,64.2,57.4,-100.00,NNW,338,0.0,0.9,79,-99.99,,,-99.99,WSDL version 423,2013-10-11 17:45:00,
2013-10-11 13:51:00,64.4,57.4,-100.00,ESE,113,0.0,0.0,78,-99.99,,,-99.99,WSDL version 423,2013-10-11 17:51:00,
2013-10-11 13:57:00,64.6,57.7,-100.00,West,270,0.0,0.0,78,0.04,,,0.04,WSDL version 423,2013-10-11 17:57:00,
2013-10-11 14:03:00,64.8,58.1,-100.00,WSW,244,0.0,2.7,79,-99.99,,,-99.99,WSDL version 423,2013-10-11 18:03:00,
2013-10-11 14:09:00,64.7,57.7,-100.00,NW,304,0.0,1.1,78,0.04,,,0.04,WSDL version 423,2013-10-11 18:09:00,
2013-10-11 14:15:00,64.8,57.7,-100.00,NW,326,0.0,0.9,78,-99.99,,,-99.99,WSDL version 423,2013-10-11 18:15:00,
2013-10-11 14:21:00,64.8,57.8,-100.00,SSE,152,0.4,2.5,78,-99.99,,,-99.99,WSDL version 423,2013-10-11 18:21:00,
2013-10-11 14:27:00,65.1,58.1,-100.00,WNW,293,0.8,2.9,78,0.04,,,0.04,WSDL version 423,2013-10-11 18:27:00,
2013-10-11 14:33:00,65.3,57.9,-100.00,NNW,346,1.0,2.9,77,-99.99,,,-99.99,WSDL version 423,2013-10-11 18:33:00,
2013-10-11 14:39:00,65.5,58.0,-100.00,SW,217,0.0,2.9,76,-99.99,,,-99.99,WSDL version 423,2013-10-11 18:39:00,
2013-10-11 14:45:00,65.6,57.8,-100.00,NNW,328,0.7,4.7,76,0.04,,,0.04,WSDL version 423,2013-10-11 18:45:00,
2013-10-11 14:51:00,65.7,57.6,-100.00,NW,305,0.0,3.6,75,-99.99,,,-99.99,WSDL version 423,2013-10-11 18:51:00,
2013-10-11 14:57:00,65.7,57.5,-100.00,WNW,287,0.0,2.5,75,-99.99,,,-99.99,WSDL version 423,2013-10-11 18:57:00,
2013-10-11 15:03:00,65.7,57.3,-100.00,WNW,293,0.4,2.9,74,0.00,,,0.04,WSDL version 423,2013-10-11 19:03:00,
2013-10-11 15:09:00,65.8,57.3,-100.00,NNE,15,0.7,2.9,74,0.00,,,0.04,WSDL version 423,2013-10-11 19:09:00,
2013-10-11 15:15:00,65.8,57.3,-100.00,NW,309,0.6,2.9,74,-99.99,,,-99.99,WSDL version 423,2013-10-11 19:15:00,
2013-10-11 15:21:00,65.8,57.0,-100.00,West,281,0.0,2.7,73,0.00,,,0.04,WSDL version 423,2013-10-11 19:21:00,
2013-10-11 15:27:00,65.8,57.0,-100.00,NW,323,0.0,2.9,73,0.00,,,0.04,WSDL version 423,2013-10-11 19:27:00,
2013-10-11 15:33:00,66.0,57.1,-100.00,NNE,20,0.4,2.7,73,0.00,,,0.04,WSDL version 423,2013-10-11 19:33:00,
2013-10-11 15:39:00,66.0,56.7,-100.00,WNW,296,0.0,2.9,72,-99.99,,,-99.99,WSDL version 423,2013-10-11 19:39:00,
2013-10-11 15:45:00,66.2,56.9,-100.00,WNW,293,0.8,5.6,72,-99.99,,,-99.99,WSDL version 423,2013-10-11 19:45:00,
2013-10-11 15:51:00,66.2,56.6,-100.00,SSW,209,1.1,5.6,71,0.00,,,0.04,WSDL version 423,2013-10-11 19:51:00,
2013-10-11 15:57:00,66.4,56.6,-100.00,NNW,328,0.9,3.4,70,0.00,,,0.04,WSDL version 423,2013-10-11 19:57:00,
2013-10-11 16:03:00,66.4,56.4,-100.00,NNW,328,0.5,2.5,70,-99.99,,,-99.99,WSDL version 423,2013-10-11 20:03:00,
2013-10-11 16:09:00,66.4,56.3,-100.00,SE,143,0.0,2.5,70,-99.99,,,-99.99,WSDL version 423,2013-10-11 20:09:00,
2013-10-11 16:15:00,66.4,56.3,-100.00,WNW,298,0.9,2.5,70,-99.99,,,-99.99,WSDL version 423,2013-10-11 20:15:00,
2013-10-11 16:21:00,66.4,56.3,-100.00,North,10,1.2,3.8,70,0.00,,,0.04,WSDL version 423,2013-10-11 20:21:00,
2013-10-11 16:27:00,66.4,56.0,-100.00,WSW,243,1.2,4.7,70,0.00,,,0.04,WSDL version 423,2013-10-11 20:27:00,
2013-10-11 16:33:00,66.4,56.0,-100.00,NW,308,0.0,2.7,69,0.00,,,0.04,WSDL version 423,2013-10-11 20:33:00,
2013-10-11 16:39:00,66.5,56.1,-100.00,WNW,286,1.0,2.5,69,0.00,,,0.04,WSDL version 423,2013-10-11 20:39:00,
2013-10-11 16:45:00,66.6,56.1,-100.00,WNW,293,0.7,2.5,69,0.00,,,0.04,WSDL version 423,2013-10-11 20:45:00,
2013-10-11 16:51:00,66.6,56.1,-100.00,West,278,0.5,2.7,69,0.00,,,0.04,WSDL version 423,2013-10-11 20:51:00,
2013-10-11 16:57:00,66.6,56.2,-100.00,NW,326,0.0,2.7,69,0.00,,,0.04,WSDL version 423,2013-10-11 20:57:00,
2013-10-11 17:03:00,66.7,56.1,-100.00,ESE,110,0.0,2.7,69,0.00,,,0.04,WSDL version 423,2013-10-11 21:03:00,
2013-10-11 17:09:00,66.7,56.3,-100.00,NW,312,0.6,3.4,69,0.00,,,0.04,WSDL version 423,2013-10-11 21:09:00,
2013-10-11 17:15:00,66.7,56.1,-100.00,NNW,341,0.9,3.4,68,0.00,,,0.04,WSDL version 423,2013-10-11 21:15:00,
2013-10-11 17:21:00,66.8,56.2,-100.00,SE,129,0.7,3.6,69,0.00,,,0.04,WSDL version 423,2013-10-11 21:21:00,
2013-10-11 17:27:00,66.9,56.3,-100.00,WNW,298,0.4,3.6,68,-99.99,,,-99.99,WSDL version 423,2013-10-11 21:27:00,
2013-10-11 17:33:00,66.9,56.4,-100.00,SSW,211,0.3,3.6,69,-99.99,,,-99.99,WSDL version 423,2013-10-11 21:33:00,
2013-10-11 17:39:00,66.9,56.0,-100.00,NNW,338,0.7,3.4,68,0.00,,,0.04,WSDL version 423,2013-10-11 21:39:00,
2013-10-11 17:45:00,66.9,56.0,-100.00,WNW,286,0.0,3.4,68,0.00,,,0.04,WSDL version 423,2013-10-11 21:45:00,
2013-10-11 17:51:00,66.9,56.0,-100.00,North,349,0.5,3.4,68,-99.99,,,-99.99,WSDL version 423,2013-10-11 21:51:00,
2013-10-11 17:57:00,66.9,56.0,-100.00,WNW,283,0.4,3.4,68,-99.99,,,-99.99,WSDL version 423,2013-10-11 21:57:00,
2013-10-11 18:03:00,66.8,55.9,-100.00,North,354,0.0,3.8,68,-99.99,,,-99.99,WSDL version 423,2013-10-11 22:03:00,
2013-10-11 18:09:00,66.8,55.9,-100.00,WSW,250,0.0,3.8,68,0.00,,,0.04,WSDL version 423,2013-10-11 22:09:00,
2013-10-11 18:15:00,66.7,55.9,-100.00,North,360,0.3,2.5,68,-99.99,,,-99.99,WSDL version 423,2013-10-11 22:15:00,
2013-10-11 18:21:00,66.7,55.9,-100.00,NW,326,0.0,1.6,68,-99.99,,,-99.99,WSDL version 423,2013-10-11 22:21:00,
2013-10-11 18:27:00,66.7,55.9,-100.00,NW,320,0.0,2.7,68,-99.99,,,-99.99,WSDL version 423,2013-10-11 22:27:00,
2013-10-11 18:33:00,66.7,55.9,-100.00,South,170,0.0,1.1,68,0.00,,,0.04,WSDL version 423,2013-10-11 22:33:00,
2013-10-11 18:39:00,66.6,55.7,-100.00,East,101,0.0,0.0,68,-99.99,,,-99.99,WSDL version 423,2013-10-11 22:39:00,
2013-10-11 18:45:00,66.6,55.9,-100.00,NNW,332,0.0,1.3,69,-99.99,,,-99.99,WSDL version 423,2013-10-11 22:45:00,
2013-10-11 18:51:00,66.6,56.1,-100.00,NW,318,0.7,3.4,69,-99.99,,,-99.99,WSDL version 423,2013-10-11 22:51:00,
2013-10-11 18:57:00,66.6,56.1,-100.00,West,270,0.0,3.4,69,-99.99,,,-99.99,WSDL version 423,2013-10-11 22:57:00,
2013-10-11 19:03:00,66.6,56.1,-100.00,NW,315,0.0,3.1,69,-99.99,,,-99.99,WSDL version 423,2013-10-11 23:03:00,
2013-10-11 19:09:00,66.6,56.1,-100.00,North,350,0.6,3.1,69,0.00,,,0.04,WSDL version 423,2013-10-11 23:09:00,
2013-10-11 19:15:00,66.6,56.1,-100.00,NW,307,0.2,2.5,69,-99.99,,,-99.99,WSDL version 423,2013-10-11 23:15:00,
2013-10-11 19:21:00,66.6,56.1,-100.00,NE,56,0.4,2.5,69,0.00,,,0.04,WSDL version 423,2013-10-11 23:21:00,
2013-10-11 19:27:00,66.6,56.2,-100.00,NW,326,0.6,2.5,70,0.00,,,0.04,WSDL version 423,2013-10-11 23:27:00,
2013-10-11 19:33:00,66.6,56.5,-100.00,South,180,0.9,2.7,70,-99.99,,,-99.99,WSDL version 423,2013-10-11 23:33:00,
2013-10-11 19:39:00,66.6,56.5,-100.00,North,8,0.0,4.0,70,0.00,,,0.04,WSDL version 423,2013-10-11 23:39:00,
2013-10-11 19:45:00,66.4,56.4,-100.00,NW,315,0.0,4.0,70,-99.99,,,-99.99,WSDL version 423,2013-10-11 23:45:00,
2013-10-11 19:51:00,66.4,56.3,-100.00,NNW,345,0.5,4.0,70,-99.99,,,-99.99,WSDL version 423,2013-10-11 23:51:00,
2013-10-11 19:57:00,66.4,56.3,-100.00,South,188,0.0,4.0,70,0.00,,,0.04,WSDL version 423,2013-10-11 23:57:00,
2013-10-11 20:03:00,66.3,56.2,-100.00,NW,309,0.0,2.9,70,-99.99,,,-99.99,WSDL version 423,2013-10-12 00:03:00,
2013-10-11 20:09:00,66.2,56.1,-100.00,NE,56,0.5,3.4,70,-99.99,,,-99.99,WSDL version 423,2013-10-12 00:09:00,
2013-10-11 20:15:00,66.2,56.2,-100.00,North,360,0.0,3.4,70,-99.99,,,-99.99,WSDL version 423,2013-10-12 00:15:00,
2013-10-11 20:21:00,66.2,56.3,-100.00,WSW,238,0.0,1.6,71,0.00,,,0.04,WSDL version 423,2013-10-12 00:21:00,
2013-10-11 20:27:00,66.2,56.5,-100.00,North,3,0.0,1.6,71,0.00,,,0.04,WSDL version 423,2013-10-12 00:27:00,
2013-10-11 20:33:00,66.2,56.5,-100.00,West,264,0.0,1.6,71,-99.99,,,-99.99,WSDL version 423,2013-10-12 00:33:00,
2013-10-11 20:39:00,66.2,56.1,-100.00,WNW,293,0.0,1.3,70,-99.99,,,-99.99,WSDL version 423,2013-10-12 00:39:00,
2013-10-11 20:45:00,66.3,56.2,-100.00,WNW,301,0.0,5.8,70,0.00,,,0.04,WSDL version 423,2013-10-12 00:45:00,
2013-10-11 20:51:00,66.3,56.3,-100.00,North,360,0.0,2.2,70,-99.99,,,-99.99,WSDL version 423,2013-10-12 00:51:00,
2013-10-11 20:57:00,66.4,56.3,-100.00,North,349,0.0,2.9,70,-99.99,,,-99.99,WSDL version 423,2013-10-12 00:57:00,
2013-10-11 21:03:00,66.3,56.2,-100.00,North,8,0.0,0.9,70,-99.99,,,-99.99,WSDL version 423,2013-10-12 01:03:00,
2013-10-11 21:09:00,66.2,56.1,-100.00,NE,34,0.0,1.3,70,0.00,,,0.04,WSDL version 423,2013-10-12 01:09:00,
2013-10-11 21:15:00,66.2,56.2,-100.00,NW,315,0.0,2.5,70,-99.99,,,-99.99,WSDL version 423,2013-10-12 01:15:00,
2013-10-11 21:21:00,66.3,56.4,-100.00,East,80,0.0,2.7,70,0.00,,,0.04,WSDL version 423,2013-10-12 01:21:00,
2013-10-11 21:27:00,66.2,56.5,-100.00,NE,39,0.0,2.7,71,-99.99,,,-99.99,WSDL version 423,2013-10-12 01:27:00,
2013-10-11 21:33:00,66.2,56.5,-100.00,SE,125,0.0,1.6,71,-99.99,,,-99.99,WSDL version 423,2013-10-12 01:33:00,
2013-10-11 21:39:00,66.2,56.1,-100.00,SW,230,0.0,3.1,70,0.00,,,0.04,WSDL version 423,2013-10-12 01:39:00,
2013-10-11 21:45:00,66.2,56.1,-100.00,NNW,335,0.0,3.1,70,0.00,,,0.04,WSDL version 423,2013-10-12 01:45:00,
2013-10-11 21:51:00,66.2,56.1,-100.00,ESE,113,0.0,1.3,70,0.00,,,0.04,WSDL version 423,2013-10-12 01:51:00,
2013-10-11 21:57:00,66.2,56.1,-100.00,SSW,200,0.0,1.6,70,0.00,,,0.04,WSDL version 423,2013-10-12 01:57:00,
2013-10-11 22:02:00,66.2,56.0,-100.00,NW,326,0.0,1.6,69,-99.99,,,-99.99,WSDL version 423,2013-10-12 02:02:00,
2013-10-11 22:08:00,66.1,55.9,-100.00,NW,309,0.0,1.1,70,0.00,,,0.04,WSDL version 423,2013-10-12 02:08:00,
2013-10-11 22:14:00,66.0,55.6,-100.00,South,190,0.0,1.1,69,0.00,,,0.04,WSDL version 423,2013-10-12 02:14:00,
2013-10-11 22:20:00,66.0,55.6,-100.00,NNE,25,0.0,0.9,69,0.00,,,0.04,WSDL version 423,2013-10-12 02:20:00,
2013-10-11 22:26:00,66.0,55.6,-100.00,North,360,0.0,0.9,69,0.00,,,0.04,WSDL version 423,2013-10-12 02:26:00,
2013-10-11 22:32:00,65.8,55.4,-100.00,WNW,293,0.0,0.9,69,-99.99,,,-99.99,WSDL version 423,2013-10-12 02:32:00,
2013-10-11 22:38:00,65.9,55.3,-100.00,WSW,238,0.5,2.7,68,0.00,,,0.04,WSDL version 423,2013-10-12 02:38:00,
2013-10-11 22:44:00,66.0,55.2,-100.00,NNW,332,0.0,2.7,68,-99.99,,,-99.99,WSDL version 423,2013-10-12 02:44:00,
2013-10-11 22:50:00,65.8,55.0,-100.00,NNW,338,0.0,2.0,68,0.00,,,0.04,WSDL version 423,2013-10-12 02:50:00,
2013-10-11 22:56:00,65.8,55.0,-100.00,East,83,0.5,2.2,68,-99.99,,,-99.99,WSDL version 423,2013-10-12 02:56:00,
2013-10-11 23:02:00,65.9,55.0,-100.00,ESE,110,0.0,2.5,68,0.00,,,0.04,WSDL version 423,2013-10-12 03:02:00,
2013-10-11 23:08:00,65.8,55.0,-100.00,SW,218,0.0,2.2,68,-99.99,,,-99.99,WSDL version 423,2013-10-12 03:08:00,
2013-10-11 23:14:00,65.8,54.9,-100.00,WNW,290,0.4,2.7,68,-99.99,,,-99.99,WSDL version 423,2013-10-12 03:14:00,
2013-10-11 23:20:00,65.8,55.0,-100.00,NW,304,0.4,2.9,68,0.00,,,0.04,WSDL version 423,2013-10-12 03:20:00,
2013-10-11 23:26:00,65.8,55.0,-100.00,SW,215,0.6,2.9,68,0.00,,,0.04,WSDL version 423,2013-10-12 03:26:00,
2013-10-11 23:32:00,65.8,55.0,-100.00,NNE,23,0.0,3.8,68,-99.99,,,-99.99,WSDL version 423,2013-10-12 03:32:00,
2013-10-11 23:38:00,65.8,55.0,-100.00,NW,309,0.0,3.6,68,-99.99,,,-99.99,WSDL version 423,2013-10-12 03:38:00,
2013-10-11 23:44:00,65.8,54.9,-100.00,NNW,340,0.0,3.6,68,-99.99,,,-99.99,WSDL version 423,2013-10-12 03:44:00,
2013-10-11 23:50:00,65.7,54.8,-100.00,NW,321,0.4,2.5,68,0.00,,,0.04,WSDL version 423,2013-10-12 03:50:00,
2013-10-11 23:56:00,65.5,54.4,-100.00,NNW,329,0.4,2.2,67,-99.99,,,-99.99,WSDL version 423,2013-10-12 03:56:00,